sat.trackr.live / text

‹ back to catalog

QIANFAN-154

NORAD 69113 · 2026-108K

PAYLOAD ACTIVE UNKNOWN

§ Identity

Operator
Country
PRC
Launch date
2026-05-17
Launch site
WSC
Launch vehicle
Mass (kg)
RCS (m²)

External: N2YO · Heavens-Above · Gunter

§ Orbital elements

Epoch: 2026-09-20T04:23:11.380704Z

Period
106.59 min
Inclination
89.0197°
Eccentricity
0.0002152
Mean motion
13.51026968 rev/d
Perigee alt
1,066.9 km
Apogee alt
1,070.1 km
Semi-major
7,446.6 km
B*
1.6750e-4
RAAN
12.5752°
Arg perigee
105.9145°
Mean anomaly
254.2244°
Rev number
1,726

§ Raw data

QIANFAN-1541 69113U 26108K   26263.18277061  .00000120  00000+0  16750-3 0  99922 69113  89.0197  12.5752 0002152 105.9145 254.2244 13.51026968 17263

JSON: /api/v1/satellites/69113 · /tle

For live sub-satellite position, see the globe view (requires WebGL).

§ Visibility from observer

Set your observer location to see the next 7 days of passes ≥ 10°. The values pass through the URL so the page stays shareable.

No JS? Fill the form by hand. The geolocation button needs JavaScript.